SCP
0 0 0 0 0 0 0 0 0 0 0 0 0 0 0 0 0 0 0 0 0 0 0 0 0 0 0 0 0 0 0 0 0 0 0 0 0 0 0 0 0 0 0
0 0 0 0 0 0 0 0 0 0 0 0 0 0 0 0 0 0 0 0 0 0 0 0 0 0 0 0 0 0 0 0 0 0 0 0 0 0 0 0 0 0 0
0 0 0 0 0 0 0 0 0 0 0 0 0 0 0 0 0 0 0 0 0 0 0 0 0 0 0 0 0 0 0 0 0 0 0 0 0 0 0 0 0 0 0
0 0 0 0 0 0 0 0 0 0 0 0 0 0 0 0 0 0 0 0 0 0 0 0 0 0 0 0 0 0 0 0 0 0 0 0 0 0 0 0 0 0 0
0 0 0 0 0 0 0 0 0 0 0 0 0 0 0 0 0 0 0 0 0 0 0 0 0 0 0 0 0 0 0 0 0 0 0 0 0 0 0 0 0 0 0
0 0 0 0 0 0 0 0 0 0 0 0 0 0 0 0 0 0 0 0 0 0 0 0 0 0 0 0 0 0 0 0 0 0 0 0 0 0 0 0 0 0 0
0 0 0 0 0 0 0 0 0 0 0 0 0 0 0 0 0 0 0 0 0 0 0 0 0 0 0 0 0 0 0 0 0 0 0 0 0 0 0 0 0 0 0
0 0 0 0 0 0 0 0 0 0 0 0 0 0 0 0 0 0 0 0 0 0 0 0 0 0 0 0 0 0 0 0 0 0 0 0 0 0 0 0 0 0 0
0 0 0 0 0 0 0 0 0 0 0 0 0 0 0 0 0 0 0 0 0 0 0 0 0 0 0 0 0 0 0 0 0 0 0 0 0 0 0 0 0 0 0
0 0 0 0 0 0 0 0 0 0 0 0 0 0 0 0 0 0 0 0 0 0 0 0 0 0 0 0 0 0 0 0 0 0 0 0 0 0 0 0 0 0 0
0 0 0 0 0 0 0 0 0 0 0 0 0 0 0 0 0 0 0 0 0 0 0 0 0 0 0 0 0 0 0 0 0 0 0 0 0 0 0 0 0 0 0
0 0 0 0 0 0 0 0 0 0 0 0 0 0 0 0 0 0 0 0 0 0 0 0 0 0 0 0 0 0 0 0 0 0 0 0 0 0 0 0 0 0 0
0 0 0 0 0 0 0 0 0 0 0 0 0 0 0 0 0 0 0 0 0 0 0 0 0 0 0 0 0 0 0 0 0 0 0 0 0 0 0 0 0 0 0
0 0 0 0 -0 0 0 0 0 0 0 0 0 0 0 0 0 0 0 0 0 0 0 0 0 0 0 0 0 0 0 0 0 0 0 0 0 0 0 0 0 0 0
0 0 0 0 0 0 0 0 0 0 0 0 0 0 0 0 0 0 0 0 0 0 0 0 0 0 0 0 0 0 0 0 0 0 0 0 0 0 0 0 0 0 0
0 0 0 0 -0 -0 -0 0 -0 -0 0 0 0 0 0 0 0 0 0 0 0 0 0 0 0 0 0 0 0 0 0 0 0 0 0 0 0 0 0 0 0 0 0
0 0 -0 -0 -0 -0 -0 0 0 -0 0 0 0 0 0 0 0 0 0 0 0 0 0 0 0 0 0 0 0 0 0 0 0 0 0 0 0 0 0 0 0 0 0
-0 -0 -0 -0 0 0 0 0 0 0 0 0 0 0 0 0 0 0 0 0 0 0 0 0 0 0 0 0 0 0 0 0 0 0 0 0 0 0 0 0 0 0 0
0 0 0 0 0 0 0 0 0 0 0 0 0 0 0 0 0 0 0 0 0 0 0 0 0 0 0 0 0 0 0 0 0 0 0 0 0 0 0 0 0 0 0
-0 -0 0 0 0 0 0 0 0 0 0 0 0 0 0 0 0 0 0 0 0 0 0 0 0 0 0 0 0 0 0 0 0 0 0 0 0 0 0 0 0 0 0
0 0 0 0 0 0 0 0 0 0 0 0 0 0 0 0 0 0 0 0 0 0 0 0 0 0 0 0 0 0 0 0 0 0 0 0 0 0 0 0 0 0 0
0 0 0 0 0 0 0 0 0 0 0 0 0 0 0 0 0 0 0 0 0 0 0 0 0 0 0 0 0 0 0 0 0 0 0 0 0 0 0 0 0 0 0
0 0 0 0 0 0 0 0 0 0 0 0 0 0 0 0 0 0 0 0 0 0 0 0 0 0 0 0 0 0 0 0 0 0 0 0 0 0 0 0 0 0 0
0 0 0 0 0 0 0 0 0 0 0 0 0 0 0 0 0 0 0 0 0 0 0 0 0 0 0 0 0 0 0 0 0 0 0 0 0 0 0 0 0 0 0
0 0 0 0 0 0 0 0 0 0 0 0 0 0 0 0 0 0 0 0 0 0 0 0 0 0 0 0 0 0 0 0 0 0 0 0 0 0 0 0 0 0 0
0 0 0 0 0 0 0 0 0 0 0 0 0 0 0 0 0 0 0 0 0 0 0 0 0 0 0 0 0 0 0 0 0 0 0 0 0 0 0 0 0 0 0
Wind_Speed_500mb
96 94 90 97 107 98 119 117 119 120 128 114 105 97 88 80 75 70 65 67 70 66 61 48 35 34 43 41 33 32 27 24 25 28 31 35 40 43 45 46 45 42 43
83 85 91 99 105 101 114 123 113 118 121 116 106 98 90 83 78 74 79 78 71 62 50 44 46 50 46 37 33 28 29 27 28 31 36 36 41 44 45 44 42 42 47
66 74 95 100 108 106 116 114 107 114 124 116 106 97 88 84 81 75 74 60 54 51 50 47 44 47 38 33 32 30 30 31 33 37 39 43 44 43 44 45 44 46 48
73 83 94 100 98 89 76 92 105 117 123 114 100 94 87 81 78 72 59 51 52 47 44 45 43 35 34 33 32 30 31 34 36 41 45 45 46 43 45 45 49 52 54
72 76 84 94 94 84 72 94 97 108 114 108 97 85 76 75 69 58 54 48 49 47 50 44 36 36 33 32 29 30 34 36 42 45 48 48 50 48 47 51 57 58 57
79 81 84 88 85 81 74 89 96 101 103 95 86 75 77 70 57 53 51 53 46 49 42 38 35 34 30 29 32 32 36 40 44 46 49 53 52 50 52 57 58 60 67
77 85 82 76 87 82 90 97 101 106 103 99 85 82 72 58 62 55 44 44 44 38 36 35 32 28 30 31 31 35 39 43 46 49 51 53 54 53 57 60 59 58 60
65 76 79 81 84 84 86 89 99 99 84 80 80 66 62 61 51 46 49 40 39 37 35 30 28 29 27 28 31 37 42 44 45 50 54 55 54 57 55 55 56 57 58
52 66 74 77 79 76 72 79 88 91 86 75 67 64 58 51 51 47 41 40 39 34 29 29 27 27 25 28 33 37 44 47 48 53 57 57 52 55 54 51 53 55 63
50 57 58 60 70 76 82 91 89 79 76 68 65 52 53 52 45 40 38 35 31 28 28 26 26 25 25 29 35 38 45 44 51 51 53 56 49 49 48 50 49 54 55
55 63 66 64 70 77 85 82 78 75 70 62 58 56 47 39 36 33 30 26 24 25 25 24 23 23 25 29 33 39 43 46 48 50 55 54 54 52 49 49 50 51 55
55 60 65 70 74 77 75 72 69 65 63 60 51 45 41 34 30 25 23 25 25 25 23 23 23 25 25 28 33 39 40 43 44 52 61 65 61 58 55 54 52 51 54
64 67 68 69 69 65 65 67 66 59 52 48 42 35 29 25 25 25 24 22 23 25 27 26 28 29 29 34 39 40 37 38 46 57 65 66 60 58 62 60 55 56 56
66 65 66 71 71 66 61 54 49 45 39 33 30 28 25 22 18 16 17 22 28 32 32 35 37 37 42 46 46 45 41 45 53 62 65 66 64 66 65 61 61 60 64
64 62 58 55 50 46 38 33 29 26 23 22 19 15 12 11 11 16 22 29 33 37 43 47 50 51 55 57 58 54 52 56 58 61 64 66 69 70 70 66 68 67 68
38 37 34 33 33 31 31 32 29 24 20 19 18 16 15 15 17 20 24 30 36 42 48 53 57 60 62 62 63 60 63 66 64 63 67 68 72 74 72 71 72 72 71
17 21 24 25 25 25 25 24 23 21 19 17 18 19 20 22 26 28 31 35 39 45 49 52 60 65 66 65 65 69 71 68 65 67 70 72 72 73 73 75 74 74 73
13 16 15 15 16 16 16 17 18 20 21 21 22 24 27 29 32 35 38 42 45 46 47 50 56 62 66 70 73 76 74 68 70 71 74 76 76 76 77 78 77 76 72
10 12 14 17 19 19 20 21 20 19 19 22 25 29 33 36 36 39 43 44 40 42 47 54 59 63 65 69 73 75 77 79 79 79 82 81 79 77 80 82 80 77 72
14 15 16 17 18 19 20 21 22 24 27 28 28 31 35 37 38 40 40 39 42 46 53 59 62 65 65 64 66 70 77 80 82 82 84 83 81 80 81 81 78 74 71
15 17 16 16 16 17 18 21 24 27 29 29 32 33 35 35 34 36 41 45 48 52 55 60 64 64 65 68 71 72 75 77 76 78 80 79 77 77 76 76 72 68 65
10 12 13 15 17 19 21 24 27 29 30 30 30 29 29 29 32 36 40 44 47 51 55 58 56 56 59 64 67 70 72 75 77 75 69 65 65 66 67 65 63 62 59
10 12 15 16 17 18 20 21 23 23 22 22 22 23 26 28 31 35 40 45 49 51 51 52 55 56 58 63 66 68 71 70 67 63 59 56 57 57 56 56 54 54 53
13 13 13 11 12 12 11 11 13 14 15 17 20 22 25 29 34 37 38 40 41 44 48 52 55 58 59 60 61 62 61 60 58 53 51 50 49 47 47 47 48 47 47
6 4 3 3 4 6 8 9 11 13 16 19 23 27 30 32 31 31 33 37 41 44 47 49 52 53 56 58 59 59 58 57 52 48 46 44 41 41 42 42 42 42 42
6 7 6 6 6 7 10 13 15 18 21 23 24 24 24 25 28 31 34 37 38 40 44 47 50 52 54 55 56 55 52 49 46 40 38 36 35 36 37 38 38 39 39
Wind_Direction_500mb
239 233 220 215 210 204 206 211 206 205 201 197 196 195 194 195 197 201 198 191 199 207 200 193 207 242 235 219 226 227 240 253 259 264 278 286 289 294 301 304 308 312 317
227 210 211 202 200 201 204 212 204 203 195 196 194 194 193 194 194 196 195 197 207 202 188 203 239 234 214 220 225 236 244 258 266 279 282 286 294 297 299 300 307 315 314
199 202 193 195 197 194 205 203 202 200 191 189 189 190 190 194 194 197 200 203 203 198 216 223 208 212 216 222 229 240 253 267 276 280 291 296 298 301 302 303 309 309 312
185 185 189 191 188 189 204 207 200 194 188 185 184 188 188 189 194 197 198 202 194 196 202 209 209 214 220 228 238 251 266 272 282 290 291 295 300 304 300 301 303 308 309
183 188 187 186 193 191 205 202 193 186 185 185 183 185 187 192 195 192 185 188 194 205 202 206 211 216 224 236 252 264 271 285 288 289 294 298 300 301 300 298 300 305 305
178 181 186 189 186 188 206 198 190 187 180 179 180 183 185 183 182 182 184 186 207 194 204 208 213 221 233 248 258 271 281 285 289 291 296 294 299 297 295 294 298 303 304
171 175 179 183 182 187 187 185 185 180 177 177 177 178 175 175 172 182 197 190 187 201 207 212 220 230 240 252 269 279 285 291 295 296 296 297 296 295 293 295 295 293 296
166 169 174 177 177 178 178 179 178 174 171 169 167 167 167 171 184 189 179 184 200 206 211 217 227 237 250 266 278 286 290 291 299 296 296 295 292 290 290 289 289 291 294
161 160 165 171 168 169 172 169 167 167 166 164 161 163 170 175 174 173 187 199 205 208 214 224 236 249 264 272 282 291 295 300 301 298 293 290 293 291 289 287 289 291 298
151 157 160 162 162 163 166 166 161 160 159 158 162 165 163 162 175 191 197 204 210 215 223 232 244 257 270 280 289 297 301 306 293 290 290 292 290 285 286 288 287 291 296
142 146 152 158 159 157 157 156 153 156 156 159 155 154 163 180 189 198 202 212 220 226 231 236 247 260 269 281 296 302 302 294 293 297 301 298 296 292 289 288 286 289 291
142 144 144 145 146 148 148 149 150 150 150 149 157 168 177 183 191 204 216 221 225 231 236 243 250 258 268 281 291 293 297 296 307 309 303 297 295 294 292 286 286 287 288
129 132 135 136 137 139 140 137 138 147 157 163 168 173 176 187 201 212 223 236 241 243 247 249 257 265 273 280 285 290 303 301 305 302 300 296 295 288 283 287 287 287 288
117 120 121 122 124 129 139 145 151 161 164 165 166 173 184 199 210 228 243 252 253 253 256 257 261 269 274 278 284 296 304 305 306 301 300 299 289 285 284 284 282 286 286
114 118 123 128 134 142 150 152 156 155 162 170 167 171 189 210 226 242 248 251 253 256 256 259 264 270 275 281 286 292 295 297 301 302 298 293 289 282 281 283 281 281 283
119 127 135 144 148 152 154 158 165 170 173 178 189 202 226 244 251 259 267 269 268 266 268 270 273 275 280 284 286 293 291 290 295 299 295 290 284 282 283 281 277 277 280
134 143 149 154 157 162 168 173 176 184 196 210 225 238 246 256 266 274 278 280 278 274 276 281 282 283 283 286 292 291 289 290 288 293 295 292 289 285 282 279 278 277 278
147 151 160 167 174 181 189 198 206 216 225 236 248 258 266 270 275 276 278 281 280 285 291 294 296 297 297 294 291 290 292 292 293 294 297 295 291 286 282 279 279 278 277
183 180 189 202 211 215 221 226 232 242 255 262 265 269 273 275 280 279 277 280 288 297 305 306 303 301 299 297 296 295 296 296 297 296 296 296 294 288 284 281 279 278 275
218 221 221 221 227 235 245 253 261 265 268 271 275 277 278 280 277 276 286 298 306 309 307 304 304 301 299 295 291 288 288 291 293 294 297 297 294 291 286 283 280 277 275
220 228 234 244 250 254 258 263 265 267 273 279 277 274 274 277 283 292 299 305 305 304 304 301 299 298 295 292 290 289 289 290 291 294 296 294 292 290 288 284 280 276 275
232 240 246 253 259 262 266 270 271 270 270 272 272 276 283 292 297 295 295 298 302 303 300 299 297 293 290 289 289 289 289 290 292 294 294 293 292 290 289 285 280 277 277
229 236 239 242 248 253 257 261 264 264 269 281 290 295 301 299 294 299 305 305 304 303 301 300 298 297 295 294 293 294 295 297 297 297 297 295 294 293 290 285 282 280 279
228 229 232 234 240 250 262 269 274 290 297 300 304 305 307 310 310 310 309 308 307 306 305 304 305 306 307 308 307 306 305 304 303 301 298 297 296 295 291 287 286 285 282
221 243 274 290 305 300 289 290 297 302 311 315 315 312 311 311 311 313 315 315 314 313 312 313 314 315 315 315 314 314 312 309 307 304 302 300 299 297 293 291 289 286 283
291 284 282 290 302 306 304 304 306 308 307 308 310 312 312 314 321 323 321 320 319 320 321 322 322 322 321 319 318 318 319 316 314 312 307 304 302 300 297 294 291 289 286
Wind_Speed_850mb
96 94 90 97 107 98 119 117 119 120 128 114 105 97 88 80 75 70 65 67 70 66 61 48 35 34 43 41 33 32 27 24 25 28 31 35 40 43 45 46 45 42 43
83 85 91 99 105 101 114 123 113 118 121 116 106 98 90 83 78 74 79 78 71 62 50 44 46 50 46 37 33 28 29 27 28 31 36 36 41 44 45 44 42 42 47
66 74 95 100 108 106 116 114 107 114 124 116 106 97 88 84 81 75 74 60 54 51 50 47 44 47 38 33 32 30 30 31 33 37 39 43 44 43 44 45 44 46 48
73 83 94 100 98 89 76 92 105 117 123 114 100 94 87 81 78 72 59 51 52 47 44 45 43 35 34 33 32 30 31 34 36 41 45 45 46 43 45 45 49 52 54
72 76 84 94 94 84 72 94 97 108 114 108 97 85 76 75 69 58 54 48 49 47 50 44 36 36 33 32 29 30 34 36 42 45 48 48 50 48 47 51 57 58 57
79 81 84 88 85 81 74 89 96 101 103 95 86 75 77 70 57 53 51 53 46 49 42 38 35 34 30 29 32 32 36 40 44 46 49 53 52 50 52 57 58 60 67
77 85 82 76 87 82 90 97 101 106 103 99 85 82 72 58 62 55 44 44 44 38 36 35 32 28 30 31 31 35 39 43 46 49 51 53 54 53 57 60 59 58 60
65 76 79 81 84 84 86 89 99 99 84 80 80 66 62 61 51 46 49 40 39 37 35 30 28 29 27 28 31 37 42 44 45 50 54 55 54 57 55 55 56 57 58
52 66 74 77 79 76 72 79 88 91 86 75 67 64 58 51 51 47 41 40 39 34 29 29 27 27 25 28 33 37 44 47 48 53 57 57 52 55 54 51 53 55 63
50 57 58 60 70 76 82 91 89 79 76 68 65 52 53 52 45 40 38 35 31 28 28 26 26 25 25 29 35 38 45 44 51 51 53 56 49 49 48 50 49 54 55
55 63 66 64 70 77 85 82 78 75 70 62 58 56 47 39 36 33 30 26 24 25 25 24 23 23 25 29 33 39 43 46 48 50 55 54 54 52 49 49 50 51 55
55 60 65 70 74 77 75 72 69 65 63 60 51 45 41 34 30 25 23 25 25 25 23 23 23 25 25 28 33 39 40 43 44 52 61 65 61 58 55 54 52 51 54
64 67 68 69 69 65 65 67 66 59 52 48 42 35 29 25 25 25 24 22 23 25 27 26 28 29 29 34 39 40 37 38 46 57 65 66 60 58 62 60 55 56 56
66 65 66 71 71 66 61 54 49 45 39 33 30 28 25 22 18 16 17 22 28 32 32 35 37 37 42 46 46 45 41 45 53 62 65 66 64 66 65 61 61 60 64
64 62 58 55 50 46 38 33 29 26 23 22 19 15 12 11 11 16 22 29 33 37 43 47 50 51 55 57 58 54 52 56 58 61 64 66 69 70 70 66 68 67 68
38 37 34 33 33 31 31 32 29 24 20 19 18 16 15 15 17 20 24 30 36 42 48 53 57 60 62 62 63 60 63 66 64 63 67 68 72 74 72 71 72 72 71
17 21 24 25 25 25 25 24 23 21 19 17 18 19 20 22 26 28 31 35 39 45 49 52 60 65 66 65 65 69 71 68 65 67 70 72 72 73 73 75 74 74 73
13 16 15 15 16 16 16 17 18 20 21 21 22 24 27 29 32 35 38 42 45 46 47 50 56 62 66 70 73 76 74 68 70 71 74 76 76 76 77 78 77 76 72
10 12 14 17 19 19 20 21 20 19 19 22 25 29 33 36 36 39 43 44 40 42 47 54 59 63 65 69 73 75 77 79 79 79 82 81 79 77 80 82 80 77 72
14 15 16 17 18 19 20 21 22 24 27 28 28 31 35 37 38 40 40 39 42 46 53 59 62 65 65 64 66 70 77 80 82 82 84 83 81 80 81 81 78 74 71
15 17 16 16 16 17 18 21 24 27 29 29 32 33 35 35 34 36 41 45 48 52 55 60 64 64 65 68 71 72 75 77 76 78 80 79 77 77 76 76 72 68 65
10 12 13 15 17 19 21 24 27 29 30 30 30 29 29 29 32 36 40 44 47 51 55 58 56 56 59 64 67 70 72 75 77 75 69 65 65 66 67 65 63 62 59
10 12 15 16 17 18 20 21 23 23 22 22 22 23 26 28 31 35 40 45 49 51 51 52 55 56 58 63 66 68 71 70 67 63 59 56 57 57 56 56 54 54 53
13 13 13 11 12 12 11 11 13 14 15 17 20 22 25 29 34 37 38 40 41 44 48 52 55 58 59 60 61 62 61 60 58 53 51 50 49 47 47 47 48 47 47
6 4 3 3 4 6 8 9 11 13 16 19 23 27 30 32 31 31 33 37 41 44 47 49 52 53 56 58 59 59 58 57 52 48 46 44 41 41 42 42 42 42 42
6 7 6 6 6 7 10 13 15 18 21 23 24 24 24 25 28 31 34 37 38 40 44 47 50 52 54 55 56 55 52 49 46 40 38 36 35 36 37 38 38 39 39
Wind_Direction_850mb
239 233 220 215 210 204 206 211 206 205 201 197 196 195 194 195 197 201 198 191 199 207 200 193 207 242 235 219 226 227 240 253 259 264 278 286 289 294 301 304 308 312 317
227 210 211 202 200 201 204 212 204 203 195 196 194 194 193 194 194 196 195 197 207 202 188 203 239 234 214 220 225 236 244 258 266 279 282 286 294 297 299 300 307 315 314
199 202 193 195 197 194 205 203 202 200 191 189 189 190 190 194 194 197 200 203 203 198 216 223 208 212 216 222 229 240 253 267 276 280 291 296 298 301 302 303 309 309 312
185 185 189 191 188 189 204 207 200 194 188 185 184 188 188 189 194 197 198 202 194 196 202 209 209 214 220 228 238 251 266 272 282 290 291 295 300 304 300 301 303 308 309
183 188 187 186 193 191 205 202 193 186 185 185 183 185 187 192 195 192 185 188 194 205 202 206 211 216 224 236 252 264 271 285 288 289 294 298 300 301 300 298 300 305 305
178 181 186 189 186 188 206 198 190 187 180 179 180 183 185 183 182 182 184 186 207 194 204 208 213 221 233 248 258 271 281 285 289 291 296 294 299 297 295 294 298 303 304
171 175 179 183 182 187 187 185 185 180 177 177 177 178 175 175 172 182 197 190 187 201 207 212 220 230 240 252 269 279 285 291 295 296 296 297 296 295 293 295 295 293 296
166 169 174 177 177 178 178 179 178 174 171 169 167 167 167 171 184 189 179 184 200 206 211 217 227 237 250 266 278 286 290 291 299 296 296 295 292 290 290 289 289 291 294
161 160 165 171 168 169 172 169 167 167 166 164 161 163 170 175 174 173 187 199 205 208 214 224 236 249 264 272 282 291 295 300 301 298 293 290 293 291 289 287 289 291 298
151 157 160 162 162 163 166 166 161 160 159 158 162 165 163 162 175 191 197 204 210 215 223 232 244 257 270 280 289 297 301 306 293 290 290 292 290 285 286 288 287 291 296
142 146 152 158 159 157 157 156 153 156 156 159 155 154 163 180 189 198 202 212 220 226 231 236 247 260 269 281 296 302 302 294 293 297 301 298 296 292 289 288 286 289 291
142 144 144 145 146 148 148 149 150 150 150 149 157 168 177 183 191 204 216 221 225 231 236 243 250 258 268 281 291 293 297 296 307 309 303 297 295 294 292 286 286 287 288
129 132 135 136 137 139 140 137 138 147 157 163 168 173 176 187 201 212 223 236 241 243 247 249 257 265 273 280 285 290 303 301 305 302 300 296 295 288 283 287 287 287 288
117 120 121 122 124 129 139 145 151 161 164 165 166 173 184 199 210 228 243 252 253 253 256 257 261 269 274 278 284 296 304 305 306 301 300 299 289 285 284 284 282 286 286
114 118 123 128 134 142 150 152 156 155 162 170 167 171 189 210 226 242 248 251 253 256 256 259 264 270 275 281 286 292 295 297 301 302 298 293 289 282 281 283 281 281 283
119 127 135 144 148 152 154 158 165 170 173 178 189 202 226 244 251 259 267 269 268 266 268 270 273 275 280 284 286 293 291 290 295 299 295 290 284 282 283 281 277 277 280
134 143 149 154 157 162 168 173 176 184 196 210 225 238 246 256 266 274 278 280 278 274 276 281 282 283 283 286 292 291 289 290 288 293 295 292 289 285 282 279 278 277 278
147 151 160 167 174 181 189 198 206 216 225 236 248 258 266 270 275 276 278 281 280 285 291 294 296 297 297 294 291 290 292 292 293 294 297 295 291 286 282 279 279 278 277
183 180 189 202 211 215 221 226 232 242 255 262 265 269 273 275 280 279 277 280 288 297 305 306 303 301 299 297 296 295 296 296 297 296 296 296 294 288 284 281 279 278 275
218 221 221 221 227 235 245 253 261 265 268 271 275 277 278 280 277 276 286 298 306 309 307 304 304 301 299 295 291 288 288 291 293 294 297 297 294 291 286 283 280 277 275
220 228 234 244 250 254 258 263 265 267 273 279 277 274 274 277 283 292 299 305 305 304 304 301 299 298 295 292 290 289 289 290 291 294 296 294 292 290 288 284 280 276 275
232 240 246 253 259 262 266 270 271 270 270 272 272 276 283 292 297 295 295 298 302 303 300 299 297 293 290 289 289 289 289 290 292 294 294 293 292 290 289 285 280 277 277
229 236 239 242 248 253 257 261 264 264 269 281 290 295 301 299 294 299 305 305 304 303 301 300 298 297 295 294 293 294 295 297 297 297 297 295 294 293 290 285 282 280 279
228 229 232 234 240 250 262 269 274 290 297 300 304 305 307 310 310 310 309 308 307 306 305 304 305 306 307 308 307 306 305 304 303 301 298 297 296 295 291 287 286 285 282
221 243 274 290 305 300 289 290 297 302 311 315 315 312 311 311 311 313 315 315 314 313 312 313 314 315 315 315 314 314 312 309 307 304 302 300 299 297 293 291 289 286 283
291 284 282 290 302 306 304 304 306 308 307 308 310 312 312 314 321 323 321 320 319 320 321 322 322 322 321 319 318 318 319 316 314 312 307 304 302 300 297 294 291 289 286